Weather History for Monett, MO

Change the Weather History Date:

Wednesday, December 12, 2012

  Actual Average (KJLN) Record (KJLN)
Temperature  
Mean Temperature 39 °F 38 °F  
Max Temperature 50 °F 48 °F 66 °F (1948)
Min Temperature 28 °F 28 °F 1 °F (1962)
Degree Days  
Heating Degree Days 26 27  
Month to date heating degree days 307  
Since 1 July heating degree days 1064  
Cooling Degree Days 0 0  
Month to date cooling degree days 0  
Year to date cooling degree days 1698  
Moisture  
Dew Point 15 °F    
Average Humidity 41    
Maximum Humidity 56    
Minimum Humidity 22    
Precipitation  
Precipitation 0.00 in 0.09 in 1.22 in (1991)
Month to date precipitation 1.21  
Year to date precipitation 44.94  
Sea Level Pressure  
Sea Level Pressure 30.21 in    
Wind  
Wind Speed 8 mph (South)    
Max Wind Speed 16 mph    
Max Gust Speed 21 mph    
Visibility 10 miles    
Events      
T = Trace of Precipitation, MM = Missing Value Source: NWS Daily Summary

Daily Weather History Graph

Daily Weather History Graph

Search for Another Location

Airport:

Trip Planner

Search our weather history database for the weather conditions in past years. The results will help you decide how hot, cold, wet, or windy it might be!

Date:

Astronomy

Dec. 12, 2012 Rise Set
Actual Time 7:20 AM CST 5:00 PM CST
Civil Twilight 6:51 AM CST 5:28 PM CST
Nautical Twilight 6:18 AM CST 6:01 PM CST
Astronomical Twilight 5:47 AM CST 6:32 PM CST
Moon 6:25 AM CST (12/12) 4:37 PM CST (12/12)
Length of Visible Light 10h 37m
Length of Day
9h 39m
Waning Crescent, 1% of the Moon is Illuminated
Dec 12
Waning Crescent
Dec 13
New
Dec 19
First Quarter
Dec 28
Full
Jan 4
Last Quarter

Hourly Weather History & Observations

Time (CST) Temp. Windchill Dew Point Humidity Pressure Visibility Wind Dir Wind Speed Gust Speed Precip Events Conditions
12:15 AM 30.2 °F 23.4 °F 14.0 °F 51% 30.19 in 10.0 mi South 6.9 mph - N/A   Clear
12:35 AM 32.0 °F 25.6 °F 14.0 °F 48% 30.19 in 10.0 mi South 6.9 mph - N/A   Clear
12:55 AM 32.0 °F 25.6 °F 14.0 °F 48% 30.19 in 10.0 mi South 6.9 mph - N/A   Clear
1:15 AM 32.0 °F 26.4 °F 14.0 °F 48% 30.19 in 10.0 mi South 5.8 mph - N/A   Clear
1:35 AM 32.0 °F 25.6 °F 14.0 °F 48% 30.19 in 10.0 mi South 6.9 mph - N/A   Clear
1:55 AM 32.0 °F 26.4 °F 14.0 °F 48% 30.19 in 10.0 mi South 5.8 mph - N/A   Clear
2:15 AM 32.0 °F 26.4 °F 14.0 °F 48% 30.19 in 10.0 mi South 5.8 mph - N/A   Clear
2:55 AM 30.2 °F 23.4 °F 14.0 °F 51% 30.19 in 10.0 mi South 6.9 mph - N/A   Clear
3:15 AM 32.0 °F 25.6 °F 12.2 °F 44% 30.19 in 10.0 mi South 6.9 mph - N/A   Clear
3:35 AM 32.0 °F 25.6 °F 12.2 °F 44% 30.19 in 10.0 mi South 6.9 mph - N/A   Clear
3:55 AM 32.0 °F 25.6 °F 12.2 °F 44% 30.19 in 10.0 mi South 6.9 mph - N/A   Clear
4:15 AM 32.0 °F 25.6 °F 12.2 °F 44% 30.19 in 10.0 mi South 6.9 mph - N/A   Clear
4:35 AM 32.0 °F 26.4 °F 12.2 °F 44% 30.19 in 10.0 mi South 5.8 mph - N/A   Clear
4:55 AM 30.2 °F 24.3 °F 12.2 °F 47% 30.19 in 10.0 mi South 5.8 mph - N/A   Clear
5:15 AM 32.0 °F 27.5 °F 12.2 °F 44% 30.20 in 10.0 mi South 4.6 mph - N/A   Clear
5:35 AM 30.2 °F 24.3 °F 12.2 °F 47% 30.20 in 10.0 mi South 5.8 mph - N/A   Clear
5:55 AM 30.2 °F 24.3 °F 12.2 °F 47% 30.21 in 10.0 mi South 5.8 mph - N/A   Clear
6:15 AM 30.2 °F 24.3 °F 12.2 °F 47% 30.22 in 10.0 mi South 5.8 mph - N/A   Clear
6:35 AM 30.2 °F 25.4 °F 12.2 °F 47% 30.23 in 10.0 mi South 4.6 mph - N/A   Clear
6:55 AM 28.4 °F 22.2 °F 12.2 °F 51% 30.23 in 10.0 mi SSE 5.8 mph - N/A   Clear
7:35 AM 28.4 °F 22.2 °F 14.0 °F 55% 30.24 in 10.0 mi South 5.8 mph - N/A   Clear
7:55 AM 30.2 °F 23.4 °F 14.0 °F 51% 30.25 in 10.0 mi South 6.9 mph - N/A   Clear
8:15 AM 32.0 °F 25.6 °F 15.8 °F 51% 30.25 in 10.0 mi South 6.9 mph - N/A   Clear
8:35 AM 33.8 °F 27.7 °F 15.8 °F 48% 30.26 in 10.0 mi South 6.9 mph - N/A   Clear
8:55 AM 35.6 °F 27.5 °F 17.6 °F 48% 30.26 in 10.0 mi South 11.5 mph - N/A   Clear
9:15 AM 37.4 °F 30.3 °F 15.8 °F 41% 30.26 in 10.0 mi South 10.4 mph - N/A   Clear
9:35 AM 37.4 °F 28.9 °F 17.6 °F 45% 30.26 in 10.0 mi South 13.8 mph - N/A   Clear
9:55 AM 41.0 °F 33.1 °F 19.4 °F 42% 30.27 in 10.0 mi South 15.0 mph - N/A   Clear
10:15 AM 41.0 °F 33.5 °F 19.4 °F 42% 30.27 in 10.0 mi South 13.8 mph - N/A   Clear
10:55 AM 42.8 °F 36.2 °F 17.6 °F 36% 30.27 in 10.0 mi SSW 12.7 mph - N/A   Clear
11:15 AM 42.8 °F 35.1 °F 17.6 °F 36% 30.27 in 10.0 mi South 16.1 mph 20.7 mph N/A   Clear
11:35 AM 44.6 °F 38.8 °F 17.6 °F 34% 30.26 in 10.0 mi SSW 11.5 mph - N/A   Clear
11:55 AM 44.6 °F 38.4 °F 19.4 °F 37% 30.25 in 10.0 mi SSW 12.7 mph - N/A   Clear
12:15 PM 44.6 °F 39.2 °F 19.4 °F 37% 30.24 in 10.0 mi SSW 10.4 mph - N/A   Clear
12:35 PM 46.4 °F 40.7 °F 17.6 °F 32% 30.23 in 10.0 mi South 12.7 mph 18.4 mph N/A   Clear
12:55 PM 46.4 °F 41.1 °F 17.6 °F 32% 30.23 in 10.0 mi SSW 11.5 mph - N/A   Clear
1:15 PM 48.2 °F - 15.8 °F 27% 30.21 in 10.0 mi SSW 12.7 mph 18.4 mph N/A   Clear
1:35 PM 48.2 °F - 15.8 °F 27% 30.21 in 10.0 mi SSW 15.0 mph - N/A   Clear
1:55 PM 48.2 °F - 15.8 °F 27% 30.20 in 10.0 mi SSW 16.1 mph - N/A   Clear
2:15 PM 50.0 °F - 15.8 °F 26% 30.19 in 10.0 mi SSW 13.8 mph 19.6 mph N/A   Clear
2:35 PM 50.0 °F - 14.0 °F 24% 30.19 in 10.0 mi SSW 13.8 mph 18.4 mph N/A   Clear
2:55 PM 50.0 °F - 14.0 °F 24% 30.19 in 10.0 mi SSW 12.7 mph - N/A   Clear
3:15 PM 50.0 °F - 12.2 °F 22% 30.19 in 10.0 mi South 13.8 mph - N/A   Clear
3:35 PM 50.0 °F - 14.0 °F 24% 30.20 in 10.0 mi SSW 12.7 mph 17.3 mph N/A   Clear
3:55 PM 48.2 °F - 14.0 °F 25% 30.20 in 10.0 mi SSW 12.7 mph - N/A   Clear
4:15 PM 46.4 °F 41.9 °F 12.2 °F 25% 30.20 in 10.0 mi South 9.2 mph - N/A   Clear
4:35 PM 46.4 °F 42.9 °F 14.0 °F 27% 30.20 in 10.0 mi South 6.9 mph - N/A   Clear
4:55 PM 42.8 °F 39.3 °F 14.0 °F 31% 30.19 in 10.0 mi South 5.8 mph - N/A   Clear
5:15 PM 41.0 °F 37.1 °F 14.0 °F 33% 30.20 in 10.0 mi South 5.8 mph - N/A   Clear
5:35 PM 39.2 °F 34.2 °F 14.0 °F 36% 30.19 in 10.0 mi SSE 6.9 mph - N/A   Clear
5:55 PM 37.4 °F 32.1 °F 14.0 °F 38% 30.19 in 10.0 mi SSE 6.9 mph - N/A   Clear
6:15 PM 37.4 °F 31.4 °F 14.0 °F 38% 30.19 in 10.0 mi SSE 8.1 mph - N/A   Clear
6:35 PM 37.4 °F 32.1 °F 14.0 °F 38% 30.19 in 10.0 mi SSE 6.9 mph - N/A   Clear
6:55 PM 35.6 °F 30.7 °F 12.2 °F 38% 30.19 in 10.0 mi SSE 5.8 mph - N/A   Clear
7:15 PM 35.6 °F 29.2 °F 14.0 °F 41% 30.19 in 10.0 mi SE 8.1 mph - N/A   Clear
7:35 PM 35.6 °F 29.9 °F 14.0 °F 41% 30.19 in 10.0 mi SSE 6.9 mph - N/A   Clear
7:55 PM 35.6 °F 29.9 °F 14.0 °F 41% 30.19 in 10.0 mi SSE 6.9 mph - N/A   Clear
8:15 PM 35.6 °F 29.2 °F 14.0 °F 41% 30.20 in 10.0 mi SSE 8.1 mph - N/A   Clear
8:35 PM 35.6 °F 29.2 °F 15.8 °F 44% 30.20 in 10.0 mi SSE 8.1 mph - N/A   Clear
8:55 PM 35.6 °F 28.0 °F 15.8 °F 44% 30.19 in 10.0 mi SE 10.4 mph - N/A   Clear
9:15 PM 35.6 °F 27.1 °F 17.6 °F 48% 30.19 in 10.0 mi SE 12.7 mph - N/A   Clear
9:35 PM 35.6 °F 28.0 °F 17.6 °F 48% 30.19 in 10.0 mi SE 10.4 mph - N/A   Clear
9:55 PM 37.4 °F 29.8 °F 17.6 °F 45% 30.19 in 10.0 mi SE 11.5 mph - N/A   Clear
10:15 PM 37.4 °F 30.3 °F 19.4 °F 48% 30.19 in 10.0 mi SE 10.4 mph - N/A   Clear
10:35 PM 35.6 °F 28.0 °F 19.4 °F 52% 30.19 in 10.0 mi SSE 10.4 mph - N/A   Clear
10:55 PM 35.6 °F 28.6 °F 19.4 °F 52% 30.20 in 10.0 mi SSE 9.2 mph - N/A   Clear
11:15 PM 35.6 °F 29.2 °F 19.4 °F 52% 30.21 in 10.0 mi SSE 8.1 mph - N/A   Clear
11:35 PM 33.8 °F 28.6 °F 19.4 °F 56% 30.21 in 10.0 mi SSE 5.8 mph - N/A   Clear
11:55 PM 33.8 °F 28.6 °F 19.4 °F 56% 30.22 in 10.0 mi SSE 5.8 mph - N/A   Clear